Weather History for KEOE - April, 2014

Change the Weather History Date:

Monday, April 28, 2014

  Actual Average (KFDW) Record (KFDW)
Temperature  
Mean Temperature 73 °F -  
Max Temperature 82 °F 77 °F 86 °F (2014)
Min Temperature 64 °F 50 °F 48 °F (2015)
Cooling Degree Days 8    
Growing Degree Days 23 (Base 50)    
Moisture  
Dew Point 63 °F    
Average Humidity 70    
Maximum Humidity 94    
Minimum Humidity 45    
Precipitation  
Precipitation 0.00 in - - ()
Sea Level Pressure  
Sea Level Pressure 29.93 in    
Wind  
Wind Speed 5 mph (SSW)    
Max Wind Speed 14 mph    
Max Gust Speed 20 mph    
Visibility 10 miles    
Events      
Averages and records for this station are not official NWS values.
T = Trace of Precipitation, MM = Missing Value Source: NWS Daily Summary

Daily Weather History Graph

Daily Weather History Graph

Search for Another Location

Airport or City:

Trip Planner

Search our weather history database for the weather conditions in past years. The results will help you decide how hot, cold, wet, or windy it might be!

Date:

Astronomy

Apr. 28, 2014 Rise Set
Actual Time 6:40 AM EDT 8:08 PM EDT
Civil Twilight 6:13 AM EDT 8:35 PM EDT
Nautical Twilight 5:41 AM EDT 9:07 PM EDT
Astronomical Twilight 5:08 AM EDT 9:40 PM EDT
Moon 6:14 AM EDT (4/28) 7:46 PM EDT (4/28)
Length of Visible Light 14h 21m
Length of Day
13h 28m
Waning Crescent, 0% of the Moon is Illuminated
Apr 28
Waning Crescent
Apr 29
New
May 6
First Quarter
May 14
Full
May 21
Last Quarter

Hourly Weather History & Observations

Time (EDT) Temp. Heat Index Dew Point Humidity Pressure Visibility Wind Dir Wind Speed Gust Speed Precip Events Conditions
12:15 AM 71.6 °F - 59.0 °F 64% 29.98 in 10.0 mi South 3.5 mph - N/A   Mostly Cloudy
12:35 AM 69.8 °F - 60.8 °F 73% 29.99 in 10.0 mi SSW 4.6 mph - N/A   Mostly Cloudy
12:55 AM 69.8 °F - 60.8 °F 73% 29.98 in 10.0 mi SSE 5.8 mph - N/A   Scattered Clouds
1:15 AM 71.6 °F - 59.0 °F 64% 29.98 in 10.0 mi South 5.8 mph - N/A   Clear
1:35 AM 69.8 °F - 60.8 °F 73% 29.97 in 10.0 mi South 5.8 mph - N/A   Clear
1:55 AM 69.8 °F - 60.8 °F 73% 29.97 in 10.0 mi South 5.8 mph - N/A   Clear
2:15 AM 69.8 °F - 60.8 °F 73% 29.97 in 10.0 mi South 4.6 mph - N/A   Clear
2:35 AM 69.8 °F - 60.8 °F 73% 29.96 in 10.0 mi South 3.5 mph - N/A   Clear
2:55 AM 69.8 °F - 60.8 °F 73% 29.96 in 10.0 mi South 4.6 mph - N/A   Clear
3:15 AM 68.0 °F - 60.8 °F 78% 29.96 in 10.0 mi South 4.6 mph - N/A   Clear
3:35 AM 68.0 °F - 60.8 °F 78% 29.96 in 10.0 mi South 4.6 mph - N/A   Clear
4:15 AM 68.0 °F - 60.8 °F 78% 29.96 in 10.0 mi Calm Calm - N/A   Clear
4:35 AM 68.0 °F - 60.8 °F 78% 29.94 in 10.0 mi South 5.8 mph - N/A   Clear
4:55 AM 68.0 °F - 60.8 °F 78% 29.94 in 10.0 mi South 3.5 mph - N/A   Clear
5:15 AM 68.0 °F - 60.8 °F 78% 29.94 in 10.0 mi South 3.5 mph - N/A   Clear
5:35 AM 68.0 °F - 60.8 °F 78% 29.95 in 10.0 mi South 4.6 mph - N/A   Clear
5:55 AM 66.2 °F - 60.8 °F 83% 29.95 in 10.0 mi SSE 3.5 mph - N/A   Clear
6:15 AM 64.4 °F - 60.8 °F 88% 29.96 in 10.0 mi South 3.5 mph - N/A   Clear
6:35 AM 64.4 °F - 62.6 °F 94% 29.96 in 10.0 mi South 3.5 mph - N/A   Clear
6:55 AM 64.4 °F - 62.6 °F 94% 29.96 in 10.0 mi SSE 4.6 mph - N/A   Clear
7:15 AM 64.4 °F - 62.6 °F 94% 29.97 in 10.0 mi South 3.5 mph - N/A   Clear
7:35 AM 64.4 °F - 62.6 °F 94% 29.97 in 10.0 mi Calm Calm - N/A   Clear
8:55 AM 69.8 °F - 66.2 °F 88% 29.96 in 10.0 mi SSW 5.8 mph - N/A   Clear
9:15 AM 71.6 °F - 66.2 °F 83% 29.96 in 10.0 mi SSW 3.5 mph - N/A   Clear
9:35 AM 71.6 °F - 66.2 °F 83% 29.96 in 10.0 mi SSW 4.6 mph - N/A   Clear
9:55 AM 73.4 °F - 66.2 °F 78% 29.96 in 10.0 mi SW 3.5 mph - N/A   Clear
10:15 AM 77.0 °F - 68.0 °F 74% 29.96 in 10.0 mi SSW 3.5 mph - N/A   Clear
10:35 AM 77.0 °F - 66.2 °F 69% 29.96 in 10.0 mi SSE 3.5 mph - N/A   Clear
10:55 AM 77.0 °F - 68.0 °F 74% 29.96 in 10.0 mi South 3.5 mph - N/A   Clear
11:15 AM 78.8 °F - 68.0 °F 69% 29.97 in 10.0 mi SSW 3.5 mph - N/A   Clear
11:35 AM 78.8 °F - 66.2 °F 65% 29.96 in 10.0 mi SW 5.8 mph - N/A   Scattered Clouds
11:55 AM 78.8 °F - 66.2 °F 65% 29.97 in 10.0 mi SSW 6.9 mph - N/A   Scattered Clouds
12:15 PM 80.6 °F 82.7 °F 66.2 °F 61% 29.96 in 10.0 mi SSW 4.6 mph - N/A   Scattered Clouds
12:35 PM 82.4 °F 83.9 °F 64.4 °F 54% 29.96 in 10.0 mi South 6.9 mph - N/A   Scattered Clouds
12:55 PM 82.4 °F 83.4 °F 62.6 °F 51% 29.95 in 10.0 mi SW 8.1 mph - N/A   Scattered Clouds
1:15 PM 82.4 °F 82.9 °F 60.8 °F 48% 29.94 in 10.0 mi SSW 6.9 mph - N/A   Scattered Clouds
1:35 PM 82.4 °F 83.4 °F 62.6 °F 51% 29.94 in 10.0 mi SW 9.2 mph - N/A   Scattered Clouds
1:55 PM 82.4 °F 82.9 °F 60.8 °F 48% 29.94 in 10.0 mi SSW 9.2 mph 19.6 mph N/A   Clear
2:15 PM 82.4 °F 82.9 °F 60.8 °F 48% 29.94 in 10.0 mi SW 9.2 mph - N/A   Scattered Clouds
2:35 PM 82.4 °F 83.4 °F 62.6 °F 51% 29.93 in 10.0 mi SW 11.5 mph - N/A   Clear
2:55 PM 82.4 °F 83.4 °F 62.6 °F 51% 29.92 in 10.0 mi South 10.4 mph - N/A   Scattered Clouds
3:15 PM 82.4 °F 82.9 °F 60.8 °F 48% 29.92 in 10.0 mi SSW 10.4 mph 16.1 mph N/A   Scattered Clouds
3:55 PM 82.4 °F 82.9 °F 60.8 °F 48% 29.91 in 10.0 mi SSW 9.2 mph - N/A   Clear
4:15 PM 82.4 °F 82.9 °F 60.8 °F 48% 29.90 in 10.0 mi SSW 8.1 mph - N/A   Clear
4:35 PM 82.4 °F 82.5 °F 59.0 °F 45% 29.90 in 10.0 mi SW 13.8 mph 17.3 mph N/A   Clear
5:15 PM 82.4 °F 82.9 °F 60.8 °F 48% 29.90 in 10.0 mi SW 10.4 mph - N/A   Clear
5:35 PM 82.4 °F 83.4 °F 62.6 °F 51% 29.89 in 10.0 mi SSW 9.2 mph - N/A   Clear
5:55 PM 80.6 °F 81.5 °F 60.8 °F 51% 29.89 in 10.0 mi SW 10.4 mph 17.3 mph N/A   Clear
6:15 PM 78.8 °F - 60.8 °F 54% 29.89 in 10.0 mi WSW 6.9 mph 17.3 mph N/A   Clear
6:35 PM 80.6 °F 81.5 °F 60.8 °F 51% 29.87 in 10.0 mi SW 4.6 mph - N/A   Clear
6:55 PM 80.6 °F 81.8 °F 62.6 °F 54% 29.87 in 10.0 mi SSW 4.6 mph - N/A   Clear
7:15 PM 78.8 °F - 62.6 °F 57% 29.88 in 10.0 mi SW 3.5 mph - N/A   Clear
7:35 PM 78.8 °F - 64.4 °F 61% 29.90 in 10.0 mi SSW 8.1 mph - N/A   Mostly Cloudy
7:55 PM 77.0 °F - 64.4 °F 65% 29.89 in 10.0 mi SSW 4.6 mph - N/A   Scattered Clouds
8:15 PM 77.0 °F - 64.4 °F 65% 29.89 in 10.0 mi South 4.6 mph - N/A   Clear
8:35 PM 75.2 °F - 64.4 °F 69% 29.89 in 10.0 mi South 3.5 mph - N/A   Clear
8:55 PM 73.4 °F - 66.2 °F 78% 29.89 in 10.0 mi Calm Calm - N/A   Clear
9:15 PM 73.4 °F - 66.2 °F 78% 29.90 in 10.0 mi Calm Calm - N/A   Clear
9:35 PM 71.6 °F - 66.2 °F 83% 29.90 in 10.0 mi SSE 3.5 mph - N/A   Clear
9:55 PM 71.6 °F - 66.2 °F 83% 29.90 in 10.0 mi Calm Calm - N/A   Clear
10:15 PM 71.6 °F - 66.2 °F 83% 29.91 in 10.0 mi Calm Calm - N/A   Clear
10:35 PM 69.8 °F - 66.2 °F 88% 29.91 in 10.0 mi SE 3.5 mph - N/A   Clear
10:55 PM 71.6 °F - 66.2 °F 83% 29.91 in 10.0 mi Calm Calm - N/A   Clear
11:15 PM 69.8 °F - 66.2 °F 88% 29.91 in 10.0 mi SE 3.5 mph - N/A   Clear
11:35 PM 69.8 °F - 68.0 °F 94% 29.90 in 10.0 mi SE 3.5 mph - N/A   Clear
11:55 PM 71.6 °F - 66.2 °F 83% 29.90 in 10.0 mi SE 3.5 mph - N/A   Clear